Погода в Намлеа

Индонезия     3°15′19″S   127°03′59″E
темп.,
°C
ветер,
м/с
пор.,
м/с
влажн.,
%
обл.,
%
осадки,
мм/ч
давл.,
гПа
погр.,
м
22 января, сб
сб2200:00+24з1189100 2.6 100925
03:00+24сз2492100 4.2 1007141
06:00+24сз3595100 1.2 1008227
09:00+25ссз3689100 1.6 1010453
12:00+27ссз4682100 2.1 1008792
15:00+26ссз4683100 3.7 1006544
18:00+25сз2489100 2.3 1007193
21:00+24зюз1192100 2.3 100933
23 января, вс
вс2300:00+23зсз129270 0.0 100964
03:00+23з229384 0.0 100764
06:00+22зюз2294100 0.0 100737
09:00+27сз1477100 0.0 1009466
12:00+30с4564100 0.1 10071406
15:00+30ссз456699 0.6 10051130
18:00+27ссз248198 2.2 1006321
21:00+24зсз129198 3.8 100860
24 января, пн
пн2400:00+24зюз119378 0.1 100828
03:00+23зюз1194100 0.1 100622
06:00+23з2293100 0.0 100737
09:00+27з127916 0.0 1008463
12:00+31с326137 0.0 10061446
15:00+30с4467100 0.3 1004995
18:00+28с237515 0.2 1005597
21:00+25сз118516 0.2 100737
25 января, вт
вт2500:00+24зсз128844 0.0 100736
03:00+24зюз1192100 0.0 100532
06:00+23зюз119399 0.0 100726
09:00+28ссз127458 0.0 1008506
12:00+31ссв336118 0.0 10061347
15:00+30ссв44644 0.0 10041141
18:00+28ссв22735 0.0 1005659
21:00+26с1185100 0.0 100746
26 января, ср
ср2600:00+25зсз118896 0.0 100846
03:00+24юз119145 0.0 100629
06:00+24юз119459 0.0 100724
09:00+28ю017312 0.0 1008496
12:00+31св336279 0.0 10071265
15:00+31св436110 0.3 10051220
18:00+29ссв23701 0.1 1006510
21:00+26ссз118392 0.1 100738